This is the latest recevied weather packets stored in our database for station/object LU3HGB-WX. If no packets are shown the sender has not sent any weather packets the latest 10 day(s).
| Time | Temp. | Humidity | Pressure | Rain* | Wind** | Luminosity | Snow |
|---|---|---|---|---|---|---|---|
| 1777483959 | 20.56° C | 46% | 1016 hPa | 0 mm | - | 667 W/m² | - |
| 1777483662 | 20.56° C | 48% | 1016 hPa | 0 mm | - | 674 W/m² | - |
| 1777483361 | 20° C | 46% | 1016 hPa | 0 mm | - | 681 W/m² | - |
| 1777483060 | 20.56° C | 45% | 1016 hPa | 0 mm | - | 688 W/m² | - |
| 1777482759 | 20.56° C | 46% | 1016 hPa | 0 mm | - | 691 W/m² | - |
| 1777482459 | 20° C | 45% | 1016 hPa | 0 mm | - | 697 W/m² | - |
| 1777482160 | 20.56° C | 45% | 1016 hPa | 0 mm | - | 702 W/m² | - |
| 1777481861 | 20° C | 47% | 1016 hPa | 0 mm | - | 706 W/m² | - |
| 1777481560 | 20° C | 47% | 1016 hPa | 0 mm | - | 708 W/m² | - |
| 1777481260 | 19.44° C | 49% | 1016 hPa | 0 mm | - | 714 W/m² | - |
| 1777480960 | 19.44° C | 48% | 1016 hPa | 0 mm | - | 716 W/m² | - |
| 1777480659 | 19.44° C | 45% | 1016 hPa | 0 mm | - | 718 W/m² | - |
| 1777480360 | 19.44° C | 45% | 1016 hPa | 0 mm | - | 457 W/m² | - |
| 1777480060 | 20° C | 46% | 1016 hPa | 0 mm | - | 718 W/m² | - |
| 1777479760 | 19.44° C | 47% | 1016 hPa | 0 mm | - | 718 W/m² | - |
| 1777479460 | 19.44° C | 46% | 1016 hPa | 0 mm | - | 718 W/m² | - |
| 1777479160 | 18.89° C | 46% | 1016 hPa | 0 mm | - | 717 W/m² | - |
| 1777478860 | 18.89° C | 46% | 1016 hPa | 0 mm | - | 717 W/m² | - |
| 1777478559 | 18.89° C | 50% | 1016 hPa | 0 mm | - | 714 W/m² | - |
| 1777478260 | 18.33° C | 48% | 1017 hPa | 0 mm | - | 713 W/m² | - |
| 1777477960 | 18.33° C | 49% | 1017 hPa | 0 mm | - | 710 W/m² | - |
| 1777477660 | 18.33° C | 48% | 1017 hPa | 0 mm | - | 707 W/m² | - |
| 1777477360 | 18.33° C | 49% | 1017 hPa | 0 mm | - | 703 W/m² | - |
| 1777477062 | 18.33° C | 49% | 1017 hPa | 0 mm | - | 698 W/m² | - |
| 1777476760 | 18.33° C | 50% | 1017 hPa | 0 mm | - | 691 W/m² | - |
* Rain latest hour (hover to see other rain measurements)
** Current wind speed in m/s (hover to see current wind gust speed)